AirNav   Pilot Hours Calculator
 
 1123 users online  

KAJO Corona Municipal Airport
Corona, California, USA

GOING TO CORONA?


FAA INFORMATION EFFECTIVE 27 FEBRUARY 2020

Location

FAA Identifier: AJO
Lat/Long: 33-53-51.5547N 117-36-08.7831W
33-53.859245N 117-36.146385W
33.8976541,-117.6024398
(estimated)
Elevation: 533 ft. / 162.5 m (surveyed)
Variation: 14E (1980)
From city: 3 miles NW of CORONA, CA
Time zone: UTC -8 (UTC -7 during Daylight Saving Time)
Zip code: 92880

Airport Operations

Airport use: Open to the public
Activation date: 04/1960
Control tower: no
ARTCC: LOS ANGELES CENTER
FSS: RIVERSIDE FLIGHT SERVICE STATION
NOTAMs facility: AJO (NOTAM-D service available)
Attendance: MON-FRI 0700-1700
Pattern altitude: NO TURNS ONTO XW LEG TIL ACFT IS WI 300 FT OF RECOMMENDED TPA.
Wind indicator: lighted
Segmented circle: yes
Lights: ACTVT MIRL RY 07/25 VASI & REIL RY 25 - CTAF.
Beacon: white-green (lighted land airport)
Operates sunset to sunrise.

Airport Communications

CTAF/UNICOM: 122.7
WX AWOS-3PT: 132.175 (951-340-4764)
SOCAL APPROACH: 135.4
SOCAL DEPARTURE: 135.4
WX ASOS at CNO (5 nm N): PHONE 909-393-5823
WX ASOS at RAL (8 nm NE): 128.8 (951-352-4392)
WX ASOS at ONT (10 nm N): PHONE 909-937-2186
WX AWOS-3P at CCB (14 nm N): 119.525 (909-985-4731)
WX AWOS-3PT at POC (15 nm NW): 124.4 (909-596-1523)
WX ASOS at SNA (19 nm SW): PHONE 714-424-0590
WX ASOS at FUL (19 nm W): PHONE 714-870-1372

Nearby radio navigation aids

VOR radial/distance  VOR name  Freq  Var
PDZr236/3.8PARADISE VORTAC112.2015E
RALr232/(8.3)RIVERSIDE VOR112.4014E
POMr125/14.2POMONA VORTAC110.4015E
ELBr012/14.8EL TORO VOR/DME117.2014E
HDFr275/(22.0)HOMELAND VOR113.4014E
SLIr058/23.6SEAL BEACH VORTAC115.7015E

Airport Services

Fuel available: 100LL
Parking: tiedowns
Airframe service: MAJOR
Powerplant service: MAJOR
Bottled oxygen: NONE
Bulk oxygen: NONE

Runway Information

Runway 7/25

Dimensions: 3200 x 60 ft. / 975 x 18 m
Surface: asphalt, in fair condition
Weight bearing capacity: 
Single wheel: 12.0
Runway edge lights: medium intensity
RUNWAY 7  RUNWAY 25
Latitude: 33-53.855827N33-53.863912N
Longitude: 117-36.462810W117-35.830277W
Elevation: 515.0 ft.533.0 ft.
Traffic pattern: rightleft
Runway heading: 075 magnetic, 089 true255 magnetic, 269 true
Displaced threshold: 194 ft.196 ft.
Markings: basic, in fair conditionbasic, in fair condition
Visual slope indicator: 4-box VASI on left (4.00 degrees glide path)
Runway end identifier lights: yes
Touchdown point: yes, no lightsyes, no lights
Obstructions: 40 ft. trees, 400 ft. from runway, 265 ft. both sides of centerline, 5:1 slope to clear
RWY 07 APCH RATIO TO DSPLCD THR 20:1
6 ft. fence, lighted, 200 ft. from runway
RWY 25 APCH RATIO TO DSPLCD THR 34:1.

Airport Ownership and Management from official FAA records

Ownership: Publicly-owned
Owner: CITY OF CORONA
400 SOUTH VICENTIA AVE, 915 WILSHIRE BOULEVARD
CORONA, CA 92882
Phone (951)736-2289
ON LEASE TO CITY OF CORONA FROM ARMY CORPS OF ENGINEERS.
Manager: CURTIS SHOWALTER
755 PUBLIC SAFETY WAY
CORONA, CA 92880
Phone (951) 279-3677
AIRPORT ADDRESS: 1900 AVIATION DRIVE, CORONA, CA 92880.

Airport Operational Statistics

Aircraft based on the field: 149
Single engine airplanes: 134
Multi engine airplanes: 13
Helicopters: 2
    
Aircraft operations: avg 110/day *
72% local general aviation
28% transient general aviation
* for 12-month period ending 31 December 2018

Additional Remarks

NOISE ABATEMENT PROCEDURES: RY 25 STRAIGHT-IN APCH NOT RECOMMENDED. AVOID FLYING OVER HOUSES ON BLUFF AT EAST END. FLY OVER WASH/CREEK. RY 07 REQUIRES A 15 DEG RIGHT TURN AT DEP END TO FOLLOW WASH/CREEK.
UNLGTD TWR 828 FT MSL 3 MILES E OF ARPT.
NO INTERSECTION TAKEOFFS.
NO TOUCH AND GO OPERATIONS ON WKNDS AND HOLS.
NO HELICOPTER TRNG AFTER 2000
FOR CD CTC SOCAL APCH AT 800-448-3724.

Instrument Procedures

NOTE: All procedures below are presented as PDF files. If you need a reader for these files, you should download the free Adobe Reader.

NOT FOR NAVIGATION. Please procure official charts for flight.
FAA instrument procedures published for use from 27 February 2020 at 0901Z to 26 March 2020 at 0900Z.

 
STARs - Standard Terminal Arrivals
SETER FIVE   download (264KB)
ZIGGY SEVEN **CHANGED**   2 pages: [1] [2] (416KB)
 
IAPs - Instrument Approach Procedures
VOR OR GPS-A   download (216KB)
NOTE: Special Take-Off Minimums/Departure Procedures apply   download (132KB)

Other nearby airports with instrument procedures:

KCNO - Chino Airport (5 nm N)
KRAL - Riverside Municipal Airport (8 nm NE)
KONT - Ontario International Airport (10 nm N)
KRIR - Flabob Airport (11 nm NE)
KCCB - Cable Airport (14 nm N)
KPOC - Brackett Field Airport (15 nm NW)
KRIV - March Air Reserve Base (17 nm E)
KSNA - John Wayne-Orange County Airport (19 nm SW)
KFUL - Fullerton Municipal Airport (19 nm W)
 
Loc | Ops | Rwys | IFR | FBO | Links
Com | Nav | Svcs | Stats | Notes

San Bernardino International Airport Authority
 
Area around KAJO (Corona Municipal Airport)
 
Road maps at: MapQuest Bing Google
 
Aerial photo
WARNING: Photo may not be current or correct
Aerial photo of KAJO (Corona Municipal Airport)
Photo by Fred Emmert AirViews.com
Photo taken 09-Feb-2015
looking southeast.

Do you have a better or more recent aerial photo of Corona Municipal Airport that you would like to share? If so, please send us your photo.

 
Sectional chart

 
Airport diagram
CAUTION: Diagram may not be current
Diagram of KAJO (Corona Municipal Airport)
 
Airport distance calculator
Flying to Corona Municipal Airport? Find the distance to fly.

From to KAJO

Sunrise and sunset
Times for 27-Feb-2020
 Local
(UTC-8)
 Zulu
(UTC)
Morning civil twilight05:5713:57
Sunrise06:2214:22
Sunset17:4401:44
Evening civil twilight18:0902:09

Current date and time
Zulu (UTC)  28-Feb-2020 01:00:53
Local (UTC-8)  27-Feb-2020 17:00:53
 
METAR
KAJO 272356Z AUTO 07005KT 10SM CLR 27/M02 A3012 RMK AO2 SLP195 T02721022 10294 20250 55005
KCNO 
5nm N 
280053Z 10008KT 10SM BKN180 OVC250 25/M02 A3014 RMK AO2 SLP202 T02501022
KRAL 
8nm NE 
280053Z 06004KT 10SM CLR 25/M07 A3015 RMK AO2 SLP196 T02501067
KONT 
9nm N 
280053Z 07006KT 10SM BKN220 OVC250 26/M07 A3014 RMK AO2 SLP197 T02561067
KCCB 
14nm N 
119.525 909-985-4731
280035Z AUTO 30004KT 10SM CLR 26/M08 A3016 RMK AO2
KPOC 
15nm NW 
280047Z VRB03KT 10SM CLR 25/M04 A3015
KRIV 
17nm E 
272358Z AUTO 08005KT 10SM CLR 24/M07 A3016 RMK AO2 SLP210 T02401072 10260 20240 55004
KFUL 
19nm W 
280053Z 00000KT 10SM CLR 26/M02 A3011 RMK AO2 SLP194 T02561017
KSNA 
19nm SW 
280053Z 00000KT 10SM BKN250 26/M01 A3011 RMK AO2 SLP195 T02611006
TAF
KONT 
9nm N 
271728Z 2718/2824 VRB06KT P6SM BKN250
KRIV 
17nm E 
272056Z 2720/2902 08009KT 9999 BKN250 QNH3014INS WND 040V120 TEMPO 2721/2724 08015G25KT BECMG 2804/2805 VRB05KT 9999 BKN200 QNH3017INS BECMG 2818/2819 08009KT 9999 SCT150 OVC200 QNH3014INS BECMG 2820/2821 31009KT 9999 SCT150 OVC200 QNH3009INS TEMPO 2821/2901 31010G15KT TX27/2722Z TN04/2814Z
KSNA 
19nm SW 
271728Z 2718/2818 VRB04KT P6SM BKN250 FM272000 22007KT P6SM SCT250 FM280100 VRB04KT P6SM BKN200
NOTAMs
Click for the latest NOTAMs
NOTAMs are issued by the DoD/FAA and will open in a separate window not controlled by AirNav.

 

 
 

FBO, Fuel Providers, and Aircraft Ground Support

  
 Business Name 
 
 Contact 
 
 Services / Description 
 
Fuel Prices
 
Comments
  
 Corona Air Ventures
951-737-1300
[web site]
Aviation fuel, Aircraft parking (ramp or tiedown), Hangar leasing / sales, Public telephone, Restrooms
 
Wireless Internet Access (WiFi)  
 
More info about Corona Air Ventures
Phillips 66
100LL
AS $4.55 
GUARANTEED
 
   write
AS=Assisted/Self Service
Update Fuel Prices
 

Would you like to see your business listed on this page?

 If your business provides an interesting product or service to pilots, flight crews, aircraft, or users of the Corona Municipal Airport, you should consider listing it here.  To start the listing process, click on the button below
 
Add a business
 

Other Pages about Corona Municipal Airport

discovercorona.com/...
 
Update a link
 
Copyright © AirNav, LLC. All rights reserved. Privacy Policy  Contact